Regional Weather Roundup
Issued by NWS

Home | Current Version | Previous Version | Text Only | Print | Product List | Glossary On
Versions: 1 2 3 4 5 6 7 8 9 10 11 12 13 14 15 16 17 18 19 20 21 22 23 24 25 26 27 28 29 30 31 32 33 34 35 36 37 38 39 40 41 42 43 44 45 46 47 48 49 50
000
ASUS43 KMKX 290500
RWRWI

WISCONSIN REGIONAL WEATHER ROUNDUP
NATIONAL WEATHER SERVICE MILWAUKEE/SULLIVAN WI
1200 AM CDT FRI AUG 29 2014

NOTE: "FAIR" INDICATES FEW OR NO CLOUDS BELOW 12,000 FEET WITH NO
SIGNIFICANT WEATHER AND/OR OBSTRUCTIONS TO VISIBILITY.

WIZ001-002-006>008-014>016-023>028-290600-
NORTHWEST WISCONSIN

CITY           SKY/WX    TMP DP  RH WIND       PRES   REMARKS
SUPERIOR ARPT  CLOUDY    62  60  93 NE6       29.96R
ASHLAND        CLOUDY    58  56  93 CALM      29.98F
HAYWARD        CLOUDY    65  61  87 S8        29.98S
SIREN          CLOUDY    65  61  87 SE7       29.95F
RICE LAKE      CLOUDY    64  61  90 SE13G20   29.98F
LADYSMITH      CLOUDY    64  62  93 SE5       30.01F
EAU CLAIRE     CLOUDY    64  63  96 SE12      29.96F
MENOMONIE      CLOUDY    65  64  96 E9        29.95F
NEW RICHMOND   CLOUDY    66  64  93 SE10G16   29.94F
OSCEOLA        CLOUDY    66  65  97 SE7       29.95F
$$

WIZ003>005-009-010-017-018-290600-
NORTH CENTRAL WISCONSIN

CITY           SKY/WX    TMP DP  RH WIND       PRES   REMARKS
WOODRUFF       CLOUDY    63  59  85 S9        30.03S
RHINELANDER    CLOUDY    60  55  83 S8        30.05F
EAGLE RIVER    CLOUDY    62  56  82 S6        30.04S
LAND O LAKES   CLOUDY    63  58  84 S5        30.05S
PHILLIPS       CLOUDY    63  60  90 SE9       30.01F
TOMAHAWK       CLOUDY    60  58  91 SE3       30.04F
MEDFORD        LGT RAIN  59  57  94 SE9G16    30.03S
MERRILL        LGT RAIN  61  60  96 CALM      30.04S
$$

WIZ029-030-035-036-043>047-290600-
CENTRAL WISCONSIN

CITY           SKY/WX    TMP DP  RH WIND       PRES   REMARKS
WAUSAU         LGT RAIN  61  58  90 SE5       30.03R
MOSINEE        LGT RAIN  59  55  88 S5        30.05R
MARSHFIELD     LGT RAIN  59  57  93 SE10      30.02F FOG
STEVENS POINT  RAIN      57  55  94 SE3       30.05R
WAUPACA        CLOUDY    62  58  86 E7        30.04F
WAUTOMA        NOT AVBL
WISC RAPIDS    HVY RAIN  57  54  89 SE9G21    30.05R FOG
CAMP DOUGLAS   CLOUDY    61  61 100 E8        30.00F
$$

WIZ011>013-019>022-031-037>040-048>050-290600-
NORTHEAST WISCONSIN

CITY           SKY/WX    TMP DP  RH WIND       PRES   REMARKS
ANTIGO         CLOUDY    59  56  92 SE5       30.06S
STURGEON BAY   MOCLDY    63  55  77 SE6       30.07S
GREEN BAY      CLOUDY    63  57  81 SE5       30.05S
MANITOWOC      NOT AVBL
APPLETON       CLOUDY    63  52  67 SE9       30.05S
CLINTONVILLE   LGT RAIN  61  57  88 E5        30.04S
OSHKOSH        CLOUDY    64  56  75 SE6       30.03S
$$

WIZ032>034-041-042-053>061-290600-
SOUTHWEST WISCONSIN

CITY           SKY/WX    TMP DP  RH WIND       PRES   REMARKS
LA CROSSE      CLOUDY    67  63  87 E8        29.95F
SPARTA         CLOUDY    62  60  93 E3        29.99S
VIROQUA        CLOUDY    64  64 100 SE8       29.98S
BOSCOBEL       CLOUDY    69  59  70 CALM      29.98F
PRAIRIE DU CHI CLOUDY    68  62  80 E6        29.96F
PLATTEVILLE    FAIR      64  61  90 SE8       30.00F
$$

WIZ056-057-062-063-064-067-068-290600-
SOUTH CENTRAL WISCONSIN

CITY           SKY/WX    TMP DP  RH WIND       PRES   REMARKS
BARABOO/DELLS  CLOUDY    61  55  81 E3        30.02S
LONE ROCK      NOT AVBL
WATERTOWN      CLOUDY    64  58  80 E8        30.03F
MADISON        CLOUDY    65  58  78 SE10      30.01F
MIDDLETON      CLOUDY    67  57  72 SE9       30.02F
MONROE         MOCLDY    63  59  88 E5        30.01F
JANESVILLE     MOCLDY    64  61  88 SE6       30.02S
$$

WIZ051-052-058>065-066-070>072-290600-
SOUTHEAST WISCONSIN

CITY           SKY/WX    TMP DP  RH WIND       PRES   REMARKS
MILWAUKEE      CLOUDY    68  59  73 SE9       30.04F
WAUKESHA       MOCLDY    63  57  82 E9        30.06S
MILWAUKEE/TIMM CLOUDY    64  55  72 E3        30.06F
RACINE         CLOUDY    69  62  78 SE9       30.05F
BURLINGTON     CLOUDY    62  59  91 CALM      30.04F
KENOSHA        CLOUDY    69  65  86 E8        30.04F
FOND DU LAC    CLOUDY    64  56  75 SE9       30.03F
SHEBOYGAN      CLOUDY    64  58  80 SE3       30.06S
WEST BEND      CLOUDY    63  55  77 CALM      30.05F
JUNEAU         CLOUDY    64  57  79 E9        30.04F
$$

LSZ147-162-290600-
LAKE SUPERIOR

STATION/POSITION TIME  TEMP    WIND        PRES    WAVE
                       AIR SEA DIR/SP/G            HT/PER
                 (UTC) (F)     (DEG/KT/KT) (MB)    (FT/S)
W MID LAKE BUOY  0350   60 58  130/ 10/ 12 1014.8F   1
DEVILS ISLAND    0400   62     300/  5/  5 1015.1F
PORT WING        0440   63      70/  1/  2 1014.9S
SAXON HARBOR     0400   62        CALM     1015.2F
$$

LMZ867-665-643>646-290600-
LAKE MICHIGAN

STATION/POSITION TIME  TEMP    WIND        PRES    WAVE
                       AIR SEA DIR/SP/G            HT/PER
                 (UTC) (F)     (DEG/KT/KT) (MB)    (FT/S)
N MID LAKE BUOY  0350   65 66  120/ 10/ 12 1018.6F   0
NORTHPORT PIER   0400   65     130/ 12/ 14 1018.3F
SISTER BAY       0311   62     110/  7/ 10   N/A
ALGOMA LAKESHORE 0323          160/ 11/ 12   N/A
KEWAUNEE LAKESHO 0400   65     120/  6/ 10 1017.1F
SHEBOYGAN LAKESH 0400   66 69   90/ 13/ 13 1017.9F
ATWATER BUOY     0400   69     130/ 12/ 14 1018.8R
MILWAUKEE LAKESH 0400   68     120/ 10/ 12   N/A
S MID LAKE BUOY  0350   69 69  110/ 16/ 17 1017.6F   2/ 3
KENOSHA   LAKESH 0400   70     120/ 14/ 17 1016.9S
$$

TC  - TEMPERATURE IN CELSIUS
VSB - VISIBILITY IN STATUTE MILES
WCI - WIND CHILL INDEX
HX  - HEAT INDEX



USA.gov is the U.S. government's official web portal to all federal, state and local government web resources and services.